Location: Aciu?a
(46.2833°N, 22.4500°E)
Time: 13:32:05
(UTC+00:00)

DMSP B5D2-2 - Pass Details

Date: 25 October 2021
Orbit: 789 x 806 km, 98.3° (Epoch: 06 December)

Event Time Altitude Azimuth Distance (km) Brightness Sun altitude
Rises 17:15:03 0° 16° (NNE) 3,317 7.2 -19.4°
Reaches altitude 10° 17:17:26 10° 20° (NNE) 2,380 6.4 -19.8°
Maximum altitude 17:22:39 64° 101° (E) 883 4.0 -20.7°
Drops below altitude 10° 17:27:48 10° 183° (S) 2,352 6.5 -21.6°
Sets 17:30:08 0° 186° (S) 3,275 7.3 -22.0°
